Simultaneous Nadir Overpasses (SNOs) Predictions

Prediction of SNOs between GOES-16 and LANDSAT-8 Satellite Orbit:

Table of predicted SNOs for the next 14.0 days since TLE Epoch: 4/11/2020
Index Date Time (GOES-16) GOES-16 Lat,Lon LANDSAT-8 Lat,Lon Distance(km) Time Diff (sec)
1 04/12/2020 03:09:14 -0.01, -75.19 0.07, -74.67 58.52 80
2 04/14/2020 02:57:03 -0.02, -75.18 0.74, -71.72 393.05 80
3 04/14/2020 15:18:18 0.02, -75.20 0.38, -76.88 190.86 80
4 04/16/2020 15:08:47 0.01, -75.20 -0.27, -73.93 144.57 80
5 04/17/2020 03:30:11 -0.01, -75.17 -0.85, -79.12 448.60 80
6 04/18/2020 14:56:35 0.01, -75.20 -0.86, -70.97 480.70 80
7 04/19/2020 03:18:00 -0.01, -75.18 -0.20, -76.17 112.31 80
8 04/21/2020 03:03:08 -0.01, -75.19 0.38, -73.21 224.78 80
9 04/21/2020 15:24:23 0.01, -75.22 0.69, -78.38 358.73 80
10 04/23/2020 15:12:13 0.01, -75.24 0.05, -75.43 21.05 80




NCC Satellite Simultaneous Nadir Overpasses (SNOs) Prediction Service
